Temperature
20 17 18 18 19 20 21 21 21 21 22 22 21 21 21 21 21 21 21 21 21 22 22 22 22 22 22 21 21 21 20 20 19 19 19 19 18 18 18 18 17 17 17 17
18 18 19 19 19 20 20 20 20 21 22 22 21 21 20 20 20 21 20 20 21 22 22 22 22 22 21 21 21 21 20 20 20 19 19 19 18 18 18 18 17 17 17 17
19 19 20 20 20 20 20 20 20 21 21 21 21 20 21 20 20 21 21 21 21 22 22 22 22 22 22 21 21 21 20 20 20 19 19 18 18 18 18 17 17 17 17 17
19 19 20 20 20 20 19 20 20 21 20 19 21 19 20 19 19 19 20 20 20 21 22 22 22 22 22 22 21 20 20 20 20 19 19 18 18 18 18 18 17 17 17 17
19 19 20 20 20 20 20 21 20 20 20 19 19 19 18 19 20 19 19 20 20 21 22 22 22 22 22 22 21 20 20 20 19 19 19 18 18 18 17 17 17 17 17 17
19 20 20 20 21 21 21 20 18 16 16 18 19 18 18 18 19 20 19 20 20 21 21 22 22 21 21 21 21 20 20 19 19 19 18 18 18 18 17 17 17 17 17 16
19 20 20 21 21 20 20 18 17 18 16 17 18 18 18 19 18 19 19 19 20 20 21 21 21 21 21 21 20 20 20 19 19 19 18 18 18 18 17 17 17 17 17 16
18 18 20 20 20 19 19 18 17 18 17 17 18 18 18 19 19 19 19 19 20 20 20 20 21 21 21 20 20 20 20 19 19 18 18 18 18 18 17 17 17 17 17 16
17 18 19 20 20 19 18 17 17 16 17 17 17 17 18 19 18 18 18 18 19 19 19 19 20 20 20 20 20 19 19 19 19 18 18 18 18 17 17 17 17 17 16 16
17 18 19 20 20 19 18 16 15 15 16 17 18 18 18 19 18 18 17 17 18 19 19 19 19 19 20 20 19 19 19 18 18 18 18 17 17 17 17 17 17 17 16 16
17 17 19 19 19 19 17 17 15 14 15 16 17 17 18 17 17 17 17 18 18 18 18 19 19 19 19 19 19 19 18 18 18 18 17 17 17 17 17 16 16 16 16 16
16 15 16 17 18 18 18 17 15 16 16 14 15 16 18 17 17 17 17 18 18 18 18 18 18 19 19 19 19 18 18 18 18 17 17 17 17 16 16 16 16 16 16 16
16 15 16 17 17 18 18 16 15 14 13 13 15 17 17 16 16 17 17 17 17 17 17 17 18 18 18 18 18 18 17 17 17 17 17 17 16 16 16 16 16 16 16 15
15 14 15 16 16 17 17 17 15 14 14 14 15 17 17 16 16 16 17 17 17 17 17 17 17 17 18 17 17 17 17 17 17 17 16 16 16 16 16 16 16 16 15 15
15 14 15 15 17 17 17 17 16 16 15 15 16 16 16 16 16 16 16 17 17 16 17 17 17 17 17 17 17 17 17 17 16 16 16 16 16 16 16 16 15 15 15 15
13 14 15 16 16 17 17 17 16 16 16 16 16 16 15 16 16 16 16 16 16 16 16 17 17 17 17 17 17 16 16 16 16 16 16 16 16 16 15 15 15 15 15 15
12 13 14 14 15 17 16 16 16 16 16 16 16 16 15 15 15 15 16 16 16 16 16 16 17 17 17 17 17 16 16 16 16 16 16 16 15 15 15 15 15 14 14 14
12 12 11 12 15 15 15 16 16 16 15 15 15 15 14 14 15 16 16 16 16 16 17 17 17 17 17 17 16 16 16 16 16 16 15 15 15 15 15 14 14 14 14 14
11 11 11 12 13 14 15 15 15 15 15 14 14 14 14 14 15 15 16 16 16 17 17 17 17 17 17 17 16 16 16 15 15 15 15 15 15 14 14 14 14 14 14 14
10 11 11 11 13 14 14 15 15 15 14 14 13 13 13 14 14 14 16 16 16 16 16 17 16 16 16 16 16 16 16 15 15 15 15 15 15 14 14 14 14 14 13 13
11 11 11 11 12 13 13 14 15 15 14 14 14 13 13 13 14 15 16 16 16 16 16 16 16 16 16 16 16 16 16 15 15 15 15 14 14 14 14 14 14 13 13 13
11 11 11 11 12 13 13 13 13 13 14 14 14 14 13 14 14 15 15 15 15 15 15 16 16 16 16 16 15 15 15 15 15 14 14 14 14 14 14 14 13 13 13 13
10 10 10 10 11 12 12 13 13 14 13 14 14 14 14 13 14 14 14 15 15 15 15 15 15 15 15 15 15 15 15 15 14 14 14 14 14 14 14 13 13 13 13 13
10 9 9 10 10 11 12 13 13 13 13 13 13 13 14 13 13 14 14 14 14 14 14 15 15 15 15 15 15 15 14 14 14 14 14 14 14 14 14 13 13 13 13 13
9 9 9 10 10 11 12 13 13 13 13 13 13 13 13 13 13 13 13 14 14 14 14 14 14 14 14 14 14 14 14 14 14 14 14 13 13 13 13 13 13 13 13 13
8 9 9 10 11 10 12 13 13 13 13 13 13 13 13 13 13 13 13 13 13 13 13 14 14 14 14 14 14 14 14 14 13 13 13 13 13 13 13 13 13 13 12 12
Wind_Speed
3 4 5 8 8 6 4 3 5 6 4 2 5 6 7 3 4 5 5 6 7 8 6 5 6 7 7 7 7 7 7 6 6 4 4 3 2 1 1 1 1 2 2 3
4 4 8 5 4 4 3 3 5 6 3 2 3 6 5 3 5 6 7 8 8 5 3 5 6 6 8 8 8 8 8 8 7 5 4 2 2 2 2 0 0 1 2 2
7 6 4 5 4 4 4 5 6 5 4 3 1 6 4 3 2 2 3 5 6 8 7 7 6 7 7 8 8 8 9 8 7 6 4 3 2 2 1 0 1 1 2 2
5 5 3 4 5 6 6 7 6 4 1 3 1 3 6 4 4 4 5 5 6 6 6 6 6 7 8 8 7 7 7 7 7 7 6 6 4 3 2 2 2 1 1 1
6 4 5 5 7 7 7 3 3 2 4 1 1 2 7 3 4 6 6 7 7 6 7 7 7 7 6 6 7 6 6 6 6 6 7 7 4 3 2 1 1 1 1 1
5 3 5 6 5 6 4 5 6 6 5 1 4 4 6 4 6 6 5 5 5 6 5 5 5 5 5 5 6 6 7 6 6 6 6 7 6 5 4 3 2 1 1 1
3 4 3 3 1 2 5 6 4 4 3 6 3 3 8 7 6 6 7 6 5 5 5 5 6 6 6 7 6 6 7 5 5 6 6 6 6 6 5 4 4 3 1 1
4 6 4 4 6 5 5 9 7 5 5 5 1 5 7 5 5 4 4 4 3 3 5 5 6 6 6 7 6 6 6 5 5 5 5 4 5 4 3 3 3 3 3 2
7 6 4 3 3 8 6 5 6 6 3 1 5 6 7 3 3 3 1 1 1 3 4 4 4 5 6 7 6 6 6 6 6 5 4 4 4 4 4 3 3 3 2 2
7 4 4 2 3 3 5 8 6 6 6 4 5 4 5 5 4 3 2 2 2 2 2 3 4 5 5 6 5 5 5 5 5 5 4 3 3 4 4 3 3 3 2 2
5 5 3 1 4 4 4 4 5 5 5 6 4 7 6 7 6 6 5 4 3 3 3 3 4 4 4 5 5 5 4 4 4 4 4 3 3 3 3 3 3 2 2 2
3 4 3 5 4 3 5 6 7 5 4 5 4 7 5 5 4 4 4 3 2 2 2 3 4 5 5 4 4 4 4 4 4 4 4 3 3 3 3 2 2 2 2 2
4 5 2 3 3 1 3 3 5 6 5 5 5 7 3 1 2 2 2 2 2 3 4 4 4 4 4 4 3 3 3 3 3 4 4 4 3 3 3 2 1 2 2 2
4 4 6 8 7 4 3 3 5 6 4 5 7 7 6 5 4 4 2 2 3 4 4 5 4 4 3 3 3 3 2 3 3 4 4 3 3 3 2 2 2 2 2 2
4 3 3 4 4 4 4 4 6 6 7 7 7 7 8 6 6 5 3 2 4 4 4 5 5 4 4 3 3 3 3 3 4 4 4 3 2 2 2 2 2 2 1 1
3 4 2 1 1 3 3 4 5 5 5 6 5 7 5 4 1 1 3 4 5 4 5 5 5 5 5 4 4 3 3 3 4 4 3 3 3 3 3 2 2 2 1 1
2 4 3 2 3 1 4 5 5 4 3 4 6 6 3 2 3 4 4 5 4 4 4 5 5 6 6 5 5 4 3 3 4 4 3 3 3 3 3 2 2 2 1 1
5 4 3 2 1 5 6 1 2 3 3 3 3 3 3 3 3 2 3 4 4 4 5 5 5 5 4 4 4 4 4 4 4 3 3 3 4 3 2 2 2 2 2 2
4 6 4 3 3 4 4 2 1 2 3 2 2 2 1 1 3 2 1 2 3 4 4 4 4 4 4 5 5 5 4 3 3 3 3 4 4 4 3 3 2 2 2 2
4 4 5 3 4 6 5 3 2 2 3 2 2 2 1 2 1 3 3 1 1 1 1 2 3 3 4 4 5 5 4 3 3 3 4 4 4 5 4 4 3 2 2 2
2 2 3 4 4 5 5 5 1 3 5 3 2 3 3 3 4 3 2 1 1 1 2 3 4 3 4 5 5 5 4 4 4 3 3 3 4 4 4 3 3 3 3 3
4 3 3 3 3 5 3 1 3 4 2 1 2 2 2 2 2 1 1 0 1 1 2 3 4 2 2 4 6 5 4 4 3 3 3 3 4 3 3 4 3 3 4 3
3 4 4 5 5 4 2 2 2 1 1 2 2 2 2 2 2 1 1 0 1 2 2 3 3 2 1 3 5 5 4 3 3 3 3 3 3 3 3 4 4 3 3 3
2 0 2 2 3 3 3 2 2 1 1 2 2 2 2 2 1 1 1 0 0 1 2 2 3 2 1 1 2 3 3 4 4 4 3 3 3 3 3 3 3 3 3 3
3 1 0 2 3 3 3 3 2 2 2 1 1 1 1 2 1 1 1 1 1 1 1 2 3 2 1 1 2 2 3 4 4 3 3 3 3 3 3 3 2 3 3 4
2 3 3 5 4 3 5 4 3 2 2 2 1 1 1 2 2 2 1 1 1 1 2 2 1 1 1 1 1 1 3 4 4 3 3 2 2 2 2 3 2 2 1 2
Wind_Direction
107 100 193 206 190 189 186 207 258 262 271 254 258 270 282 250 200 201 201 200 204 215 211 182 177 166 159 160 165 170 167 166 158 158 161 163 182 184 193 200 208 198 185 172
69 239 223 187 176 183 198 247 268 288 302 215 272 288 286 240 216 209 203 206 211 214 199 188 179 172 174 175 177 177 176 172 172 170 165 163 152 168 187 172 168 199 194 183
179 228 178 154 172 188 221 213 239 253 331 9 354 318 310 299 301 262 221 205 210 207 202 198 189 186 179 181 184 188 186 180 175 162 143 117 96 65 91 143 226 233 201 191
214 244 171 170 201 179 242 231 219 227 197 288 74 274 290 292 300 271 251 222 218 215 201 200 192 189 189 188 181 182 180 179 173 162 161 161 172 182 199 199 204 200 194 210
225 200 176 203 217 179 215 214 183 187 169 261 337 179 281 314 279 267 252 236 228 214 199 200 198 193 187 175 172 174 168 172 171 171 171 167 175 181 167 161 173 198 221 224
234 224 196 211 210 181 170 73 58 52 84 222 237 179 270 250 241 268 264 247 226 210 197 191 179 165 163 160 162 165 167 173 169 170 170 173 175 171 170 181 196 215 233 241
294 288 252 186 119 86 107 94 35 0 13 246 249 187 244 252 249 250 259 246 220 197 180 170 166 169 168 170 170 168 167 172 167 166 172 178 178 175 189 197 197 195 213 232
196 273 246 200 183 185 172 145 159 193 217 266 271 224 249 263 270 262 253 231 199 179 177 174 175 173 169 169 164 163 165 165 162 163 174 179 179 178 192 196 192 194 205 216
181 243 280 234 188 148 142 173 166 142 163 222 272 279 299 288 324 319 303 182 195 195 179 166 160 159 163 162 164 167 162 162 168 165 169 174 177 183 187 182 182 194 198 199
160 221 279 268 89 55 139 143 106 129 155 224 275 265 250 266 272 282 269 225 219 190 160 154 156 159 160 157 154 153 160 166 161 157 171 175 176 181 179 175 189 195 185 178
149 178 284 33 156 174 103 108 112 126 154 165 227 263 230 224 227 228 236 227 203 183 178 168 160 153 140 134 138 146 151 151 151 157 160 155 157 163 168 178 195 192 178 173
146 141 227 255 257 182 154 159 145 153 204 177 181 258 274 231 234 217 223 220 199 166 155 148 140 131 127 129 135 145 150 158 157 154 149 148 146 142 145 165 187 176 171 180
131 123 120 330 327 35 120 143 144 128 125 156 179 258 307 309 283 256 227 213 163 135 128 124 123 127 127 127 131 133 139 149 146 141 140 137 138 142 151 159 162 159 165 173
125 124 171 199 213 195 183 167 150 133 154 198 218 247 291 294 277 280 271 195 149 132 137 139 137 138 138 137 133 130 145 146 147 140 136 141 148 156 161 157 151 151 154 166
106 140 201 239 235 192 198 196 179 180 186 193 228 233 258 259 247 250 229 172 143 144 155 157 153 155 154 146 134 142 162 150 142 138 138 153 156 142 128 130 136 133 141 156
77 133 123 307 260 205 234 229 205 209 203 217 235 253 259 271 271 253 205 174 173 181 182 176 169 173 175 166 159 157 162 157 144 144 152 155 147 134 129 141 138 124 113 106
91 122 115 236 294 5 253 232 203 205 209 199 223 244 270 263 239 224 206 185 190 193 188 181 183 187 186 180 172 173 172 154 144 150 157 156 156 150 149 142 124 126 127 103
142 120 125 146 99 222 243 271 189 189 214 216 232 262 259 253 253 239 184 180 199 197 194 187 183 184 182 173 169 163 153 150 147 153 164 166 162 161 152 142 145 140 129 128
157 140 130 136 185 264 291 299 186 195 256 255 245 269 297 332 47 1 292 197 211 211 204 188 181 174 165 166 163 151 144 144 146 163 179 180 169 162 156 161 166 151 141 140
76 114 127 146 174 220 244 291 301 138 253 285 231 230 256 88 89 269 285 284 259 234 183 153 147 143 153 162 154 148 152 156 177 189 190 182 170 166 174 180 171 157 155 162
70 87 152 178 209 252 275 299 337 166 236 276 227 214 193 195 216 255 293 279 193 185 159 141 138 160 175 164 150 155 164 191 203 189 177 174 172 172 179 175 162 157 152 142
165 155 178 163 195 248 305 37 173 224 256 232 219 215 200 230 266 293 287 225 150 144 136 131 135 160 173 161 154 163 194 211 182 165 173 181 178 177 173 162 160 156 152 148
189 190 185 190 209 250 270 232 251 221 219 230 218 235 197 226 264 284 282 267 165 163 153 132 132 140 159 168 165 172 206 191 169 165 178 184 176 169 162 166 166 162 163 168
282 158 153 244 264 275 281 308 318 295 234 262 247 228 191 206 248 267 230 234 140 145 133 116 122 138 158 154 159 172 185 179 171 173 179 175 168 164 159 167 172 173 179 185
253 198 169 248 268 312 306 296 305 321 327 348 334 272 206 173 220 218 211 194 153 138 113 124 141 154 192 160 146 149 158 160 163 169 174 169 164 160 162 162 170 186 199 193
236 195 189 230 230 213 261 279 303 312 306 292 292 307 293 192 191 175 180 178 145 148 130 126 146 152 168 152 167 159 162 162 160 167 175 171 159 159 156 149 115 76 147 153
Height
1489 1496 1501 1499 1498 1499 1501 1504 1506 1500 1493 1494 1495 1494 1489 1487 1488 1489 1490 1491 1492 1493 1496 1499 1501 1504 1506 1508 1511 1513 1515 1517 1519 1520 1521 1522 1523 1524 1525 1526 1526 1526 1526 1527
1495 1497 1492 1491 1494 1497 1500 1504 1504 1498 1492 1493 1496 1495 1488 1487 1486 1486 1487 1488 1489 1491 1494 1497 1500 1502 1504 1506 1508 1511 1513 1515 1517 1519 1520 1521 1522 1523 1523 1525 1525 1525 1526 1526
1493 1491 1487 1491 1494 1498 1500 1502 1501 1500 1495 1493 1496 1499 1492 1487 1486 1486 1486 1486 1488 1489 1491 1493 1496 1499 1501 1504 1506 1508 1511 1513 1515 1517 1519 1520 1521 1522 1522 1523 1524 1525 1525 1525
1489 1486 1487 1490 1492 1494 1502 1493 1494 1496 1503 1509 1502 1516 1498 1491 1488 1485 1484 1485 1485 1487 1488 1491 1493 1496 1498 1501 1504 1507 1509 1511 1513 1515 1517 1518 1519 1519 1521 1522 1523 1524 1524 1524
1487 1484 1485 1489 1488 1488 1491 1488 1492 1495 1502 1510 1507 1514 1506 1493 1490 1485 1483 1482 1483 1484 1486 1488 1491 1493 1496 1499 1502 1504 1507 1509 1511 1513 1515 1517 1518 1519 1520 1521 1522 1523 1523 1523
1482 1480 1480 1481 1480 1482 1485 1490 1497 1505 1511 1520 1510 1514 1510 1497 1489 1483 1480 1480 1480 1481 1483 1486 1489 1492 1494 1497 1499 1502 1504 1507 1509 1511 1513 1514 1516 1517 1518 1519 1520 1521 1522 1522
1485 1481 1478 1477 1481 1483 1487 1503 1519 1520 1528 1524 1508 1510 1506 1487 1482 1480 1479 1478 1478 1479 1481 1483 1486 1488 1491 1494 1497 1500 1502 1504 1507 1509 1511 1513 1514 1516 1517 1517 1519 1519 1520 1520
1493 1493 1479 1476 1479 1485 1489 1497 1518 1526 1528 1521 1509 1510 1495 1481 1478 1477 1477 1476 1477 1478 1479 1481 1484 1487 1489 1492 1495 1498 1500 1503 1505 1507 1509 1510 1512 1514 1515 1516 1517 1518 1518 1519
1492 1491 1475 1472 1472 1478 1489 1496 1496 1512 1516 1519 1514 1503 1489 1479 1478 1476 1476 1475 1476 1476 1478 1480 1483 1486 1488 1491 1493 1496 1499 1501 1503 1505 1507 1508 1510 1511 1513 1514 1515 1516 1516 1517
1480 1487 1477 1473 1473 1476 1481 1489 1503 1512 1523 1524 1513 1505 1499 1484 1480 1477 1476 1475 1475 1476 1477 1480 1482 1485 1487 1490 1493 1495 1498 1500 1502 1503 1505 1507 1508 1510 1511 1512 1513 1514 1515 1515
1476 1485 1482 1477 1479 1482 1486 1491 1499 1509 1512 1521 1522 1510 1483 1480 1477 1476 1475 1475 1475 1476 1477 1479 1482 1484 1487 1489 1492 1494 1496 1499 1500 1502 1503 1505 1506 1508 1509 1510 1511 1512 1513 1514
1476 1484 1489 1483 1475 1474 1477 1485 1495 1505 1509 1513 1515 1506 1475 1474 1473 1473 1474 1474 1475 1476 1477 1479 1482 1484 1486 1488 1490 1493 1495 1497 1499 1501 1502 1504 1505 1506 1508 1509 1510 1511 1511 1512
1475 1485 1495 1491 1487 1480 1480 1483 1487 1496 1506 1513 1513 1500 1474 1473 1473 1473 1473 1473 1474 1475 1477 1478 1481 1483 1485 1488 1490 1492 1494 1496 1498 1500 1501 1502 1504 1505 1506 1507 1508 1509 1510 1511
1470 1483 1490 1493 1488 1481 1481 1482 1485 1492 1503 1506 1500 1490 1478 1475 1473 1472 1472 1472 1474 1475 1476 1478 1480 1482 1484 1487 1489 1491 1493 1495 1497 1499 1500 1501 1502 1504 1505 1506 1507 1507 1508 1509
1470 1481 1481 1479 1475 1475 1476 1478 1481 1485 1488 1493 1488 1486 1478 1474 1472 1471 1470 1471 1473 1474 1476 1477 1479 1481 1483 1486 1487 1490 1492 1494 1496 1497 1499 1500 1502 1503 1504 1504 1505 1506 1507 1508
1472 1479 1479 1479 1475 1474 1476 1475 1477 1478 1480 1482 1480 1479 1472 1470 1470 1470 1469 1470 1471 1473 1475 1477 1478 1480 1482 1483 1486 1489 1491 1493 1494 1496 1497 1499 1500 1501 1502 1503 1504 1505 1505 1506
1476 1479 1484 1487 1479 1476 1482 1475 1474 1475 1475 1476 1479 1475 1470 1469 1468 1468 1468 1469 1470 1472 1474 1476 1477 1479 1481 1483 1485 1487 1490 1491 1493 1495 1496 1498 1499 1500 1501 1502 1503 1503 1504 1505
1476 1481 1488 1489 1485 1490 1479 1469 1469 1471 1472 1472 1471 1470 1469 1468 1466 1466 1467 1468 1469 1471 1473 1474 1476 1478 1480 1482 1484 1486 1488 1489 1491 1493 1495 1496 1498 1499 1500 1501 1501 1502 1503 1504
1472 1479 1487 1491 1490 1484 1476 1470 1470 1472 1472 1469 1469 1468 1468 1466 1465 1466 1466 1467 1468 1469 1471 1472 1474 1476 1478 1480 1482 1484 1485 1487 1489 1491 1493 1495 1496 1497 1498 1499 1500 1501 1502 1503
1473 1475 1484 1489 1488 1488 1477 1468 1467 1470 1474 1468 1468 1467 1467 1466 1470 1468 1465 1466 1467 1468 1469 1471 1473 1475 1477 1478 1480 1482 1483 1485 1487 1489 1491 1493 1495 1496 1497 1498 1499 1500 1501 1502
1478 1480 1484 1487 1486 1480 1472 1467 1467 1476 1475 1467 1466 1466 1466 1466 1467 1466 1465 1465 1465 1466 1467 1469 1471 1473 1475 1477 1479 1480 1482 1484 1486 1488 1490 1491 1493 1494 1495 1496 1497 1499 1500 1500
1479 1482 1483 1486 1486 1483 1469 1467 1469 1469 1465 1464 1464 1464 1464 1464 1463 1463 1464 1464 1464 1465 1466 1467 1469 1471 1473 1475 1477 1478 1480 1482 1484 1486 1488 1489 1491 1492 1494 1495 1496 1497 1498 1499
1477 1477 1477 1478 1478 1470 1467 1466 1465 1464 1464 1463 1463 1463 1463 1462 1462 1462 1462 1462 1462 1464 1465 1466 1467 1469 1472 1474 1475 1476 1478 1481 1482 1484 1485 1487 1489 1490 1492 1493 1494 1495 1496 1497
1474 1473 1474 1473 1470 1467 1466 1465 1464 1463 1463 1462 1462 1462 1462 1461 1460 1460 1461 1461 1462 1463 1464 1465 1467 1468 1469 1472 1474 1475 1477 1479 1480 1482 1483 1485 1486 1488 1489 1491 1492 1493 1494 1495
1473 1472 1472 1471 1468 1466 1464 1464 1463 1463 1462 1461 1461 1461 1460 1460 1460 1460 1460 1460 1461 1462 1463 1464 1466 1467 1469 1470 1472 1474 1475 1477 1478 1479 1481 1482 1484 1485 1487 1488 1490 1490 1492 1493
1471 1471 1471 1469 1465 1465 1464 1463 1463 1461 1460 1460 1460 1459 1459 1459 1458 1459 1459 1460 1461 1462 1462 1463 1465 1466 1468 1469 1470 1471 1473 1474 1476 1477 1478 1480 1481 1483 1484 1485 1486 1488 1489 1490